Union Aéronautique de la Côte d'Azur

Union Aéronautique de la Côte d'Azur
UACA
Approuvé A.T.O. EASA – N°FR.ATO.0108

UNION des aéroclubs
Cannes “Ailes d’Azur”, Nice “Côte d’Azur”, Grasse “St Exupery”, ACCA “Francis Séverac”

Un cache-pitot se trouve à bord de chaque avion. Pensez à le mettre en place à la fin de chaque vol !

Avant de quitter l'avion, vérifiez que vous n'emportez pas la checklist

Un vol ne s'entreprend qu'avec un pare-brise parfaitement propre, il en va de votre sécurité, et de celle des autres

Après chaque vol, merci de mettre en place les pares-soleil!


Météo à Cannes:
METAR
LFMD 212200Z AUTO VRB03KT CAVOK 20/18 Q1014 =
LFMD 211400Z 2115/2215 12008KT CAVOK BECMG 2117/2119 VRB03KT BECMG 2208/2210 16010KT SCT020 TEMPO 2203/2210 BKN014

TAF
LFMD 211400Z 2115/2215 12008KT CAVOK BECMG 2117/2119 VRB03KT BECMG 2208/2210 16010KT SCT020 TEMPO 2203/2210 BKN014 =

SR / SS: 05:19 / 17:30 UTC (LFMD 2018-09-22)